Regional Weather Roundup
Issued by NWS Midland/Odessa, TX

Skip options and go directly to product.
Home | Oldest Version | Next Version | Current Version | All | Text Only | Save Text | Print | Product List | Glossary On

Skip product version selection by date and time.   
340
ASUS44 KMAF 232302
RWRMAF
MIDLAND AREA WEATHER ROUNDUP
NATIONAL WEATHER SERVICE MIDLAND TX
500 PM CST SUN NOV 23 2014

...IN SOUTHWEST TEXAS AND SOUTHEAST NEW MEXICO...

CITY           SKY/WX    TMP DP  RH WIND       PRES   REMARKS
ALPINE         CLEAR     64  22  20 W25G37    29.87R
ANDREWS        FAIR      65  24  21 NW31G40   29.69R
ARTESIA        NOT AVBL
BIG SPRING     CLOUDY    69  26  19 W29G35    29.68R
CARLSBAD       CLEAR     67  22  18 NW17G37   29.73R
DRYDEN           N/A     78  24  13 W21G32    29.66R
FORT STOCKTON  CLEAR     69  21  16 W25G38    29.74R
GUAD PASS      NOT AVBL
HOBBS          CLEAR     59  21  23 NW35G46   29.73R
MARFA          CLEAR     61  25  25 W26G36    29.84R
MIDLAND AIRPK  CLEAR     69  26  19 NW16G28   29.68R
MIDLAND INTL   CLEAR     69  23  17 NW18G36   29.68R
ODESSA         CLEAR     69  20  15 NW18G32   29.69R
PECOS          CLEAR     70  27  19 W23G38    29.72R
PRESIDIO       FAIR      75  29  18 W18G25    29.76S
SEMINOLE       MOCLDY    62  22  21 N28G45    29.72R HAZE
SNYDER         PTCLDY    63  35  35 N15G30    29.66R
WINK           CLEAR     71  19  14 NW23G35   29.69R
$$
...OTHER STATIONS IN TEXAS...

CITY           SKY/WX    TMP DP  RH WIND       PRES   REMARKS
ABILENE        CLEAR     65  36  34 N18       29.62R
AMARILLO       CLOUDY    38  34  85 NW7       29.78R WCI  33
AUSTIN         PTCLDY    79  41  25 W9        29.54R
BROWNSVILLE    CLEAR     79  55  43 S7        29.65S
CORPUS CHRISTI PTCLDY    78  63  59 SW7       29.60R
DALLAS FTW     PTCLDY    67  42  40 NW24G40   29.47R
DEL RIO        CLEAR     80  38  22 W15       29.61R
EL PASO        MOSUNNY   63  21  20 W37G49    29.82R
HOUSTON INT    CLEAR     77  50  38 SW9       29.54S
LUBBOCK        PTCLDY    45  29  53 N25G35    29.76R WCI  36
SAN ANGELO     CLEAR     74  26  16 NW14      29.62R
SAN ANTONIO    PTCLDY    79  41  25 W9        29.59R
WACO           CLEAR     75  39  27 W14       29.50R
WICHITA FALLS  NOT AVBL
$$
...OTHER LOCATIONS IN NEW MEXICO...

CITY           SKY/WX    TMP DP  RH WIND       PRES   REMARKS
ALAMAGORDO     MOSUNNY   57   9  14 N23G33    29.85R
ALBUQUERQUE    PTCLDY    44   7  21 NW20G33   29.94R WCI  36
CANNON AFB     MOCLDY    36  31  83 N20G26    29.86R WCI  25
CLOVIS         CLOUDY    37  27  65 N20G29    29.84R WCI  27
HOLLOMAN AFB   SUNNY     58  10  14 NW26G36   29.84R
ROSWELL        PTCLDY    56  23  27 N33G44    29.78R
RUIDOSO        PTCLDY    41  14  33 NW22G36   29.88R WCI  31
SANTA FE       CLOUDY    39  18  42 N13G21    29.86R WCI  31
TRUTH OR CONSE SUNNY     54  -2  10 NW22G41   29.90R
TUCUMCARI        N/A     37  34  89 SW14      29.85R WCI  28
$$

USA.gov is the U.S. government's official web portal to all federal, state and local government web resources and services.